METEOSAT-11 (MSG-4)

Last updated on Oct. 29, 2020, 5:52 a.m. UTC

1 40732U 15034A   20302.27480090 -.00000011  00000-0  00000-0 0  9999
2 40732   0.5280 268.5719 0002000 267.4193 319.7198  1.00269314 19391
UTC
Height (km)
Latitude
Longitude
Inclination
Orbital Period
UTC large
Height (km)
Speed (km/s)
/
Latitude / Longitude
Inclination (degrees)
Orbital Period (minutes)
Azimuth
Elevation
Range (km)
Doppler Factor
iOS Compass Heading
iOS Angle

Next 30 passes for location: Hong Kong

Rise time Rise Azimuth (degrees) Set time Set Azimuth (degrees) Duration Max altitude (degrees)

No matching passes for this satellites